FW2897 Weather Reports


Display with metric or nautical units.
time (UTC)temp
F
wind
direction
speed
MPH
gust
MPH
rain 1hr
in
rain 24hr
in
rain mn
in
humidity
%
barometer
mb
20260831175224 78 119 0.0 2.0 0.00 1.20 0.59 72 1020.9
20260831174920 78 109 0.0 2.0 0.00 1.20 0.59 71 1021.0
20260831174358 78 92 0.0 2.0 0.00 1.20 0.59 72 1021.0
20260831173612 78 237 0.0 1.0 0.00 1.20 0.59 75 1021.1
20260831173110 78 238 0.0 1.0 0.00 1.20 0.59 75 1021.0
20260831172610 78 236 0.0 2.0 0.00 1.20 0.59 71 1021.0
20260831172328 78 228 0.0 2.0 0.00 1.20 0.59 72 1021.0
20260831171548 79 189 0.0 2.0 0.00 1.20 0.59 72 1021.0
20260831171021 78 115 1.0 3.0 0.00 1.20 0.59 72 1021.2
20260831170519 78 88 1.0 3.0 0.00 1.20 0.59 72 1021.2
20260831170018 78 74 1.0 3.0 0.00 1.20 0.59 73 1021.1
20260831165452 77 84 1.0 3.0 0.00 1.20 0.59 75 1021.1
20260831164951 77 91 1.0 3.0 0.00 1.20 0.59 76 1021.0
20260831164423 77 102 1.0 3.0 0.00 1.20 0.59 76 1021.1
20260831163921 77 85 1.0 3.0 0.00 1.20 0.59 75 1021.1
20260831163416 77 64 1.0 4.0 0.00 1.20 0.59 76 1021.1
20260831162914 78 94 1.0 4.0 0.00 1.20 0.59 74 1021.1
20260831162412 78 147 1.0 5.0 0.00 1.20 0.59 76 1021.0
20260831161858 77 140 1.0 5.0 0.00 1.20 0.59 76 1021.1
20260831161359 77 52 1.0 5.0 0.00 1.20 0.59 77 1021.2
20260831160901 77 99 2.0 7.0 0.00 1.20 0.59 77 1021.1
20260831160336 77 212 1.0 7.0 0.00 1.20 0.59 78 1021.1
20260831155807 76 203 1.0 5.0 0.00 1.20 0.59 79 1021.0
20260831155306 76 148 1.0 5.0 0.00 1.20 0.59 78 1021.1
20260831154742 76 96 0.0 0.0 0.00 1.20 0.59 79 1021.0
20260831154231 76 151 0.0 0.0 0.00 1.20 0.59 81 1021.0
20260831153731 76 220 0.0 0.0 0.00 1.20 0.59 82 1021.1
20260831153230 75 106 0.0 0.0 0.00 1.20 0.59 82 1021.1
20260831152658 75 113 0.0 0.0 0.00 1.20 0.59 86 1021.1
20260831152131 74 113 0.0 0.0 0.00 1.20 0.59 86 1021.0
20260831151627 74 113 0.0 0.0 0.00 1.20 0.59 88 1021.1
20260831151125 74 113 0.0 0.0 0.00 1.20 0.59 87 1021.0
20260831150556 73 113 0.0 0.0 0.00 1.20 0.59 88 1021.1
20260831150104 74 113 0.0 0.0 0.00 1.20 0.59 89 1021.2
20260831145536 73 113 0.0 0.0 0.00 1.20 0.59 89 1021.4
20260831145000 73 113 0.0 0.0 0.00 1.20 0.59 91 1021.5
20260831144456 73 113 0.0 0.0 0.00 1.20 0.59 91 1021.6
20260831144439 73 113 0.0 0.0 0.00 1.20 0.59 92 1021.5
20260831143449 73 113 0.0 0.0 0.00 1.20 0.59 93 1021.5
20260831142947 73 113 0.0 0.0 0.00 1.20 0.59 93 1021.5
20260831142419 72 120 0.0 0.0 0.00 1.20 0.59 94 1021.3
20260831141917 72 120 0.0 1.0 0.00 1.20 0.59 94 1021.4
20260831141351 72 353 0.0 1.0 0.00 1.20 0.59 94 1021.2
20260831140822 72 353 0.0 1.0 0.00 1.20 0.59 94 1021.4
20260831140319 72 353 0.0 1.0 0.00 1.20 0.59 94 1021.3
20260831135755 71 353 0.0 1.0 0.00 1.20 0.59 94 1021.2
20260831135227 72 353 0.0 0.0 0.00 1.20 0.59 94 1021.3
20260831134725 72 353 0.0 1.0 0.00 1.20 0.59 94 1021.3
20260831134156 71 353 0.0 1.0 0.00 1.20 0.59 94 1021.4
20260831133654 71 330 0.0 1.0 0.00 1.20 0.59 94 1021.3
20260831133127 71 244 0.0 1.0 0.00 1.20 0.59 94 1021.1
20260831132625 71 245 0.0 0.0 0.00 1.20 0.59 94 1021.0
20260831132056 71 244 0.0 0.0 0.00 1.20 0.59 94 1021.2
20260831131554 71 245 0.0 0.0 0.00 1.20 0.59 94 1021.2
20260831131029 71 245 0.0 0.0 0.00 1.20 0.59 94 1021.2
20260831130501 71 245 0.0 0.0 0.00 1.20 0.59 94 1021.2
20260831125956 71 245 0.0 0.0 0.00 1.20 0.59 94 1021.4
20260831125456 71 245 0.0 0.0 0.00 1.20 0.59 94 1021.3
20260831124954 71 245 0.0 0.0 0.00 1.20 0.59 94 1021.4
20260831124425 71 245 0.0 1.0 0.00 1.20 0.59 94 1021.3
20260831123923 71 245 0.0 1.0 0.00 1.20 0.59 94 1021.2
20260831123358 71 241 0.0 1.0 0.00 1.20 0.59 94 1021.2
20260831122831 71 241 0.0 1.0 0.00 1.20 0.59 94 1021.2
20260831122823 71 241 0.0 1.0 0.00 1.20 0.59 94 1021.2
20260831121758 70 340 0.0 0.0 0.00 1.20 0.59 94 1021.2
20260831121526 70 340 0.0 0.0 0.00 1.20 0.59 94 1021.2
20260831120753 70 340 0.0 0.0 0.00 1.20 0.59 94 1021.3
20260831120305 70 340 0.0 0.0 0.00 1.20 0.59 94 1021.2
20260831115726 70 340 0.0 0.0 0.00 1.20 0.59 94 1021.2
20260831115455 70 340 0.0 0.0 0.00 1.20 0.59 94 1021.0
20260831114921 70 340 0.0 0.0 0.00 1.20 0.59 94 1021.0
20260831114131 70 340 0.0 0.0 0.00 1.20 0.59 94 1021.0
20260831113626 70 340 0.0 0.0 0.00 1.20 0.59 94 1020.8
20260831113400 70 340 0.0 0.0 0.00 1.20 0.59 94 1020.9
20260831112600 70 340 0.0 0.0 0.00 1.20 0.59 94 1020.8
20260831112104 70 340 0.0 0.0 0.00 1.20 0.59 94 1020.6
20260831111544 70 340 0.0 0.0 0.00 1.20 0.59 94 1020.5
20260831111044 70 340 0.0 0.0 0.00 1.20 0.59 94 1020.6
20260831110540 70 340 0.0 0.0 0.00 1.20 0.59 94 1020.7
20260831110029 70 340 0.0 0.0 0.00 1.20 0.59 94 1020.6
20260831105732 70 340 0.0 0.0 0.00 1.20 0.59 94 1020.6
20260831104956 70 340 0.0 0.0 0.00 1.20 0.59 94 1020.6
20260831104457 70 340 0.0 0.0 0.00 1.20 0.59 94 1020.6
20260831104139 70 340 0.0 0.0 0.00 1.20 0.59 94 1020.5
20260831104126 70 340 0.0 0.0 0.00 1.20 0.59 94 1020.5
20260831102843 70 340 0.0 0.0 0.00 1.20 0.59 94 1020.5
20260831102325 70 340 0.0 0.0 0.00 1.20 0.59 94 1020.6
20260831101826 70 340 0.0 0.0 0.00 1.20 0.59 94 1020.4
20260831101307 70 340 0.0 0.0 0.00 1.20 0.59 94 1020.4
20260831100808 70 340 0.0 0.0 0.00 1.20 0.59 94 1020.3
20260831100304 70 340 0.0 0.0 0.00 1.20 0.59 94 1020.1
20260831095805 70 340 0.0 0.0 0.00 1.20 0.59 94 1019.9
20260831095246 70 340 0.0 0.0 0.00 1.20 0.59 94 1020.0
20260831094747 70 340 0.0 0.0 0.00 1.20 0.59 94 1020.0
20260831094225 70 340 0.0 0.0 0.00 1.20 0.59 94 1020.0
20260831093659 70 340 0.0 0.0 0.00 1.20 0.59 94 1019.9
20260831093136 71 340 0.0 0.0 0.00 1.20 0.59 94 1019.8
20260831092633 71 340 0.0 0.0 0.00 1.20 0.59 94 1019.9
20260831092134 70 340 0.0 1.0 0.00 1.20 0.59 94 1019.9
20260831091600 70 340 0.0 1.0 0.00 1.20 0.59 94 1019.8
20260831091057 70 340 0.0 1.0 0.00 1.20 0.59 94 1019.8
20260831091035 70 340 0.0 1.0 0.00 1.20 0.59 94 1019.7
20260831090023 70 340 0.0 0.0 0.00 1.20 0.59 94 1019.6
20260831085520 70 340 0.0 0.0 0.00 1.20 0.59 94 1019.5
20260831085016 71 340 0.0 0.0 0.00 1.20 0.59 94 1019.4
20260831084741 71 340 0.0 0.0 0.00 1.20 0.59 94 1019.3
20260831083952 71 340 0.0 0.0 0.00 1.20 0.59 94 1019.4
20260831083425 70 340 0.0 0.0 0.00 1.20 0.59 94 1019.4
20260831083145 70 340 0.0 0.0 0.00 1.20 0.59 94 1019.3
20260831082614 70 340 0.0 0.0 0.00 1.20 0.59 94 1019.2
20260831082100 71 340 0.0 0.0 0.00 1.20 0.59 94 1019.3
20260831082046 70 340 0.0 0.0 0.00 1.20 0.59 94 1019.3
20260831081104 71 340 0.0 0.0 0.00 1.20 0.59 94 1019.3
20260831080608 71 340 0.0 0.0 0.00 1.20 0.59 94 1019.3
20260831075813 71 340 0.0 0.0 0.00 1.20 0.59 94 1019.4
20260831075308 71 340 0.0 0.0 0.00 1.20 0.59 94 1019.4
20260831074807 71 340 0.0 0.0 0.00 1.20 0.59 94 1019.5
20260831074526 71 340 0.0 0.0 0.00 1.20 0.59 94 1019.5
20260831073800 71 340 0.0 0.0 0.00 1.20 0.59 94 1019.5
20260831073231 71 340 0.0 0.0 0.00 1.20 0.59 94 1019.5
20260831072952 71 340 0.0 0.0 0.00 1.20 0.59 94 1019.5
20260831072203 71 340 0.0 0.0 0.00 1.20 0.59 94 1019.7
20260831071700 71 340 0.0 0.0 0.00 1.20 0.59 94 1019.7
20260831071354 71 340 0.0 0.0 0.00 1.20 0.59 94 1019.8
20260831070629 71 340 0.0 0.0 0.00 1.20 0.59 94 1019.8
20260831070115 71 340 0.0 0.0 0.01 1.20 0.59 94 1019.8
20260831065535 71 340 0.0 0.0 0.01 1.20 0.59 94 1019.8
20260831065029 71 340 0.0 0.0 0.01 1.20 0.59 94 1019.7
20260831064529 71 340 0.0 0.0 0.01 1.20 0.59 94 1019.7
20260831063959 71 340 0.0 0.0 0.01 1.20 0.59 94 1019.5
20260831063458 71 340 0.0 1.0 0.01 1.20 0.59 94 1019.5
20260831063007 71 340 0.0 1.0 0.01 1.20 0.59 93 1019.8
20260831062452 71 340 0.0 0.0 0.01 1.20 0.59 94 1019.8
20260831061928 71 340 0.0 0.0 0.01 1.20 0.59 94 1019.6
20260831061400 71 340 0.0 1.0 0.01 1.20 0.59 94 1019.7
20260831060833 71 340 0.0 0.0 0.03 1.20 0.59 94 1019.8
20260831060330 71 340 0.0 0.0 0.22 1.20 0.59 94 1019.9
20260831055827 71 340 0.0 0.0 0.52 1.19 0.58 94 1020.0
20260831055326 71 340 0.0 0.0 0.57 1.19 0.58 94 1020.0
20260831055023 71 340 0.0 0.0 0.57 1.19 0.58 93 1020.0
20260831054521 71 340 0.0 0.0 0.57 1.19 0.58 93 1020.0
20260831053743 71 340 0.0 1.0 0.57 1.19 0.58 93 1020.1
20260831053245 71 340 0.0 0.0 0.57 1.19 0.58 93 1020.0
20260831052733 71 340 0.0 1.0 0.57 1.19 0.58 93 1020.1
20260831052235 71 348 0.0 1.0 0.57 1.19 0.58 93 1020.1
20260831051703 71 294 0.0 2.0 0.57 1.19 0.58 94 1020.0
20260831051200 71 293 0.0 2.0 0.57 1.19 0.58 94 1020.0
20260831051153 70 292 0.0 3.0 0.51 1.13 0.53 93 1020.1
20260831050156 70 123 0.0 3.0 0.32 0.93 0.32 93 1020.4
20260831045628 69 39 0.0 1.0 0.02 0.63 0.02 93 1020.1
20260831045123 69 39 0.0 0.0 0.01 0.62 0.01 92 1020.0
20260831044621 69 48 0.0 1.0 0.01 0.62 0.01 92 1019.8
20260831044120 69 47 0.0 1.0 0.01 0.62 0.01 92 1019.9
20260831043551 69 311 0.0 0.0 0.01 0.62 0.01 92 1020.0
20260831043048 69 311 0.0 0.0 0.01 0.62 0.01 92 1020.1
20260831042524 69 311 0.0 0.0 0.02 0.62 0.01 92 1020.0
20260831042217 69 311 0.0 0.0 0.07 0.62 0.01 92 1020.0
20260831041454 69 311 0.0 0.0 0.18 0.62 0.01 92 1020.0
20260831040950 69 311 0.0 0.0 0.39 0.62 0.01 92 1020.0
20260831040449 69 311 0.0 0.0 0.54 0.62 0.01 91 1020.0
20260831035923 69 311 0.0 0.0 0.56 0.61 0.61 91 1020.0
20260831035420 69 311 0.0 0.0 0.60 0.61 0.61 91 1020.0
20260831035146 69 311 0.0 0.0 0.60 0.61 0.61 91 1020.1
20260831034400 69 311 0.0 0.0 0.61 0.61 0.61 90 1020.1
20260831033901 69 311 0.0 1.0 0.61 0.61 0.61 90 1020.0
20260831033344 69 311 0.0 1.0 0.61 0.61 0.61 90 1020.2
20260831032841 69 214 0.0 2.0 0.61 0.61 0.61 89 1020.2
20260831032339 70 90 1.0 8.0 0.59 0.59 0.60 88 1020.5
20260831031844 71 290 2.0 8.0 0.53 0.53 0.53 87 1020.9
20260831031537 72 60 3.0 15.0 0.33 0.33 0.38 85 1020.9
20260831030812 74 280 2.0 15.0 0.16 0.16 0.17 83 1020.9
20260831030257 76 271 1.0 9.0 0.07 0.07 0.07 88 1020.6
20260831025753 76 261 0.0 9.0 0.03 0.03 0.04 87 1020.5
20260831025253 76 327 0.0 1.0 0.01 0.01 0.01 86 1020.1
20260831024731 77 327 0.0 1.0 0.00 0.00 0.01 85 1020.1
20260831024158 77 327 0.0 1.0 0.00 0.00 0.00 85 1020.1
20260831023859 77 314 0.0 0.0 0.00 0.00 0.00 85 1020.2
20260831023119 77 314 0.0 0.0 0.00 0.00 0.00 86 1020.1
20260831022559 77 314 0.0 0.0 0.00 0.00 0.00 85 1020.1
20260831022306 77 314 0.0 0.0 0.00 0.00 0.00 85 1020.2
20260831021540 78 314 0.0 0.0 0.00 0.00 0.00 84 1020.1
20260831021043 78 314 0.0 0.0 0.00 0.00 0.00 83 1020.0
20260831020528 78 314 0.0 0.0 0.00 0.00 0.00 82 1020.0
20260831020029 78 316 0.0 0.0 0.00 0.00 0.00 82 1019.9
20260831015505 78 316 0.0 0.0 0.00 0.00 0.00 82 1020.0
20260831014942 78 315 0.0 1.0 0.00 0.00 0.00 81 1020.0
20260831014701 78 241 0.0 1.0 0.00 0.00 0.00 81 1020.0
20260831013939 78 230 0.0 0.0 0.00 0.00 0.00 81 1019.8
20260831013703 79 230 0.0 0.0 0.00 0.00 0.00 80 1020.0
20260831012918 79 230 0.0 0.0 0.00 0.00 0.00 79 1020.0
20260831012352 79 230 0.0 0.0 0.00 0.00 0.00 78 1020.0
20260831011826 79 230 0.0 0.0 0.00 0.00 0.00 78 1020.1
20260831011304 79 230 0.0 0.0 0.00 0.00 0.00 79 1020.2
20260831010802 79 230 0.0 1.0 0.00 0.00 0.00 79 1020.2
20260831010303 79 230 0.0 1.0 0.00 0.00 0.00 80 1020.2
20260831005725 79 229 0.0 0.0 0.00 0.00 0.00 81 1020.0
20260831005158 80 229 0.0 0.0 0.00 0.00 0.00 81 1020.1
20260831004653 80 229 0.0 2.0 0.00 0.00 0.00 80 1020.0
20260831004152 80 229 0.0 2.0 0.00 0.00 0.00 80 1019.9
20260831003849 80 191 0.0 2.0 0.00 0.00 0.00 80 1019.8
20260831003057 80 225 0.0 2.0 0.00 0.00 0.00 80 1019.6
20260831002555 79 218 0.0 2.0 0.00 0.00 0.00 80 1019.7
20260831002310 79 263 0.0 0.0 0.00 0.00 0.00 79 1019.6
20260831001551 79 263 0.0 0.0 0.00 0.00 0.00 79 1019.5
20260831001050 79 263 0.0 0.0 0.00 0.00 0.00 79 1019.5
20260831001023 79 263 0.0 0.0 0.00 0.00 0.00 80 1019.4
20260831000014 79 262 0.0 0.0 0.00 0.00 0.00 80 1019.4
20260830235445 79 263 0.0 0.0 0.00 0.00 0.00 80 1019.4
20260830234944 79 263 0.0 0.0 0.00 0.00 0.00 80 1019.4
20260830234421 79 262 0.0 0.0 0.00 0.00 0.00 80 1019.5
20260830233849 79 262 0.0 0.0 0.00 0.00 0.00 79 1019.5
20260830233348 80 263 0.0 0.0 0.00 0.00 0.00 77 1019.5
20260830233042 80 263 0.0 0.0 0.00 0.00 0.00 76 1019.4
20260830232320 81 263 0.0 1.0 0.00 0.00 0.00 76 1019.5
20260830231750 81 262 0.0 1.0 0.00 0.00 0.00 74 1019.4
20260830231247 82 262 0.0 0.0 0.00 0.00 0.00 73 1019.4
20260830230722 82 262 0.0 0.0 0.00 0.00 0.00 72 1019.4
20260830230154 83 262 0.0 0.0 0.00 0.00 0.00 71 1019.4
20260830225653 83 263 0.0 2.0 0.00 0.00 0.00 71 1019.4
20260830225124 83 263 0.0 2.0 0.00 0.00 0.00 70 1019.4
20260830224622 83 204 0.0 3.0 0.00 0.00 0.00 70 1019.4
20260830224054 84 204 0.0 3.0 0.00 0.00 0.00 69 1019.4
20260830223552 84 207 0.0 2.0 0.00 0.00 0.00 69 1019.4
20260830223311 84 256 0.0 2.0 0.00 0.00 0.00 69 1019.4
20260830222806 84 292 0.0 3.0 0.00 0.00 0.00 69 1019.6
20260830222038 84 287 0.0 4.0 0.00 0.00 0.00 69 1019.4
20260830221534 84 214 0.0 4.0 0.00 0.00 0.00 69 1019.4
20260830221031 84 255 1.0 4.0 0.00 0.00 0.00 69 1019.5
20260830220528 84 210 1.0 4.0 0.00 0.00 0.00 70 1019.5
20260830220025 84 201 1.0 4.0 0.00 0.00 0.00 70 1019.4
20260830215752 83 230 1.0 3.0 0.00 0.00 0.00 70 1019.3
20260830215000 83 76 0.0 3.0 0.00 0.00 0.00 70 1019.2
20260830214458 83 217 0.0 4.0 0.00 0.00 0.00 70 1019.1
20260830214423 84 272 1.0 2.0 0.00 0.00 0.00 69 1019.3
20260830214144 83 277 1.0 4.0 0.00 0.00 0.00 69 1019.2
20260830212915 84 290 0.0 5.0 0.00 0.00 0.00 69 1019.3
20260830212413 84 211 1.0 5.0 0.00 0.00 0.00 70 1019.3
20260830211847 83 302 1.0 4.0 0.00 0.00 0.00 70 1019.3
20260830211320 83 213 0.0 2.0 0.00 0.00 0.00 70 1019.4
20260830210818 83 158 1.0 4.0 0.00 0.00 0.00 70 1019.4
20260830210251 83 314 1.0 6.0 0.00 0.00 0.00 70 1019.4
20260830210013 83 307 1.0 6.0 0.00 0.00 0.00 70 1019.4
20260830205709 83 323 1.0 7.0 0.00 0.00 0.00 69 1019.4
20260830204719 83 165 1.0 7.0 0.00 0.00 0.00 69 1019.4
20260830204153 83 296 1.0 3.0 0.00 0.00 0.00 70 1019.4
20260830203647 84 253 1.0 3.0 0.00 0.00 0.00 69 1019.5
20260830203146 84 302 1.0 5.0 0.00 0.00 0.00 69 1019.5
20260830202617 84 189 1.0 4.0 0.00 0.00 0.00 69 1019.6
20260830202117 84 302 1.0 4.0 0.00 0.00 0.00 69 1019.5
20260830201547 83 234 1.0 4.0 0.00 0.00 0.00 69 1019.5
20260830201049 83 313 1.0 3.0 0.00 0.00 0.00 71 1019.6
20260830200523 82 357 1.0 5.0 0.00 0.00 0.00 71 1019.8
20260830200024 81 199 1.0 5.0 0.00 0.00 0.00 71 1019.7
20260830195523 82 157 0.0 5.0 0.00 0.00 0.00 71 1019.8
20260830195023 82 236 1.0 5.0 0.00 0.00 0.00 70 1020.0
20260830194458 82 315 1.0 7.0 0.00 0.00 0.00 70 1020.2
20260830194001 82 224 1.0 7.0 0.00 0.00 0.00 69 1020.2
20260830193443 82 222 1.0 4.0 0.00 0.00 0.00 69 1020.3
20260830192945 82 294 1.0 4.0 0.00 0.00 0.00 69 1020.4
20260830192422 82 315 1.0 5.0 0.00 0.00 0.00 69 1020.5
20260830191921 82 222 1.0 5.0 0.00 0.00 0.00 69 1020.5
20260830191641 82 321 0.0 3.0 0.00 0.00 0.00 68 1020.5
20260830190918 82 248 1.0 4.0 0.00 0.00 0.00 67 1020.7
20260830190415 83 255 1.0 4.0 0.00 0.00 0.00 67 1020.7
20260830185909 83 230 0.0 3.0 0.00 0.00 0.00 66 1020.6
20260830185353 83 276 1.0 3.0 0.00 0.00 0.00 65 1020.7
20260830184851 84 265 1.0 4.0 0.00 0.00 0.00 65 1020.8
20260830184351 84 319 1.0 4.0 0.00 0.00 0.00 64 1020.7
20260830183849 85 250 1.0 8.0 0.00 0.00 0.00 64 1020.7
20260830183345 85 303 2.0 8.0 0.00 0.00 0.00 62 1020.8
20260830182844 86 307 2.0 7.0 0.00 0.00 0.00 62 1020.9
20260830182322 86 329 2.0 6.0 0.00 0.00 0.00 63 1021.0
20260830182031 86 238 2.0 9.0 0.00 0.00 0.00 63 1020.9
20260830181316 85 233 2.0 9.0 0.00 0.00 0.00 65 1021.0
20260830181006 85 335 2.0 9.0 0.00 0.00 0.00 65 1021.1
20260830180221 84 285 2.0 9.0 0.00 0.00 0.00 67 1021.2